OCN877 OMDB-LIRF

Flight info

Callsign OCN877
Flight time 6h 16m
Altitude 34000
Route RIDAP M557 TUMAK L602 GADSI M703 ANBAR/N0445F360 DCT RAPLU G202 TAN R655 LEBOR UR655 BALMA DCT KOBER M601 EVENO UM601 RDS UL995 KEA UL52 KUGGI DCT IPTES/N0436F380 UL53 KRK DCT TIGRA DCT MOKTO DCT EKTOL DCT AMSOR DCT TEA DCT SIPRO/N0328F180 Z803 LAT
Aircraft A320/M-SDE3FGHIRWY/LB1

Departure

Time 2026-05-06 07:48
Airport Dubai International Airport (OMDB)

Arrival

Time 2026-05-06 14:04
Airport Rome–Fiumicino Leonardo da Vinci International Airport (LIRF)
Time Latitude Longitude Altitude Speed Heading
2026-05-06 07:21 25.25758 55.37048 44 ft 0 kts 31°
2026-05-06 07:40 25.25749 55.37042 43 ft 2 kts 30°
2026-05-06 07:40 25.25736 55.37033 43 ft 2 kts 31°
2026-05-06 07:41 25.25723 55.37025 43 ft 2 kts 30°
2026-05-06 07:41 25.25712 55.37018 43 ft 0 kts 31°
2026-05-06 07:41 25.25701 55.37012 43 ft 2 kts 12°
2026-05-06 07:41 25.25687 55.37011 43 ft 2 kts 349°
2026-05-06 07:42 25.25672 55.37017 43 ft 2 kts 326°
2026-05-06 07:42 25.25662 55.37027 43 ft 0 kts 304°
2026-05-06 07:42 25.25659 55.37033 43 ft 1 kts 299°
2026-05-06 07:42 25.25658 55.37035 43 ft 0 kts 300°
2026-05-06 07:43 25.25660 55.37032 43 ft 1 kts 300°
2026-05-06 07:44 25.25682 55.36990 43 ft 10 kts 301°
2026-05-06 07:44 25.25734 55.36897 43 ft 17 kts 302°
2026-05-06 07:44 25.25810 55.36761 41 ft 23 kts 301°
2026-05-06 07:44 25.25896 55.36604 40 ft 23 kts 301°
2026-05-06 07:45 25.25982 55.36451 40 ft 23 kts 301°
2026-05-06 07:45 25.26006 55.36328 39 ft 14 kts 231°
2026-05-06 07:45 25.26012 55.36222 37 ft 16 kts 301°
2026-05-06 07:45 25.26072 55.36113 36 ft 16 kts 301°
2026-05-06 07:46 25.26132 55.36003 36 ft 16 kts 301°
2026-05-06 07:46 25.26155 55.35884 34 ft 17 kts 227°
2026-05-06 07:46 25.26051 55.35912 35 ft 15 kts 157°
2026-05-06 07:46 25.25960 55.35948 36 ft 14 kts 124°
2026-05-06 07:47 25.25867 55.36117 37 ft 53 kts 121°
2026-05-06 07:47 25.25557 55.36676 43 ft 115 kts 121°
2026-05-06 07:47 25.25039 55.37612 49 ft 168 kts 121°
2026-05-06 07:47 25.24385 55.38786 414 ft 183 kts 123°
2026-05-06 07:48 25.23691 55.39954 1040 ft 184 kts 124°
2026-05-06 07:48 25.22973 55.41103 1707 ft 183 kts 125°
2026-05-06 07:48 25.22255 55.42247 2035 ft 185 kts 125°
2026-05-06 07:48 25.21504 55.43445 2223 ft 195 kts 126°
2026-05-06 07:49 25.20479 55.44458 2395 ft 206 kts 155°
2026-05-06 07:49 25.19039 55.44702 2576 ft 218 kts 186°
2026-05-06 07:49 25.17602 55.44052 2767 ft 231 kts 210°
2026-05-06 07:49 25.16183 55.43070 2933 ft 246 kts 211°
2026-05-06 07:50 25.14816 55.41958 3427 ft 245 kts 230°
2026-05-06 07:50 25.14114 55.40271 3870 ft 247 kts 264°
2026-05-06 07:50 25.14203 55.38392 4330 ft 247 kts 277°
2026-05-06 07:50 25.14422 55.36506 4772 ft 250 kts 276°
2026-05-06 07:51 25.14622 55.34599 5237 ft 252 kts 276°
2026-05-06 07:51 25.14805 55.32679 5717 ft 253 kts 275°
2026-05-06 07:51 25.15012 55.30751 6210 ft 255 kts 279°
2026-05-06 07:51 25.15370 55.28832 6629 ft 260 kts 285°
2026-05-06 07:52 25.15849 55.26853 6878 ft 274 kts 285°
2026-05-06 07:52 25.16377 55.24776 7138 ft 288 kts 288°
2026-05-06 07:52 25.17121 55.22699 7561 ft 294 kts 297°
2026-05-06 07:52 25.18120 55.20734 8115 ft 295 kts 302°
2026-05-06 07:53 25.19200 55.18809 8664 ft 297 kts 303°
2026-05-06 07:53 25.20299 55.16878 9205 ft 299 kts 303°
2026-05-06 07:53 25.21404 55.14931 9748 ft 301 kts 303°
2026-05-06 07:53 25.22515 55.12962 10252 ft 306 kts 303°
2026-05-06 07:54 25.23660 55.10928 10511 ft 319 kts 303°
2026-05-06 07:54 25.24853 55.08804 10784 ft 332 kts 303°
2026-05-06 07:54 25.26081 55.06613 11271 ft 339 kts 303°
2026-05-06 07:54 25.27322 55.04394 11804 ft 342 kts 303°
2026-05-06 07:55 25.28572 55.02159 12332 ft 344 kts 303°
2026-05-06 07:55 25.29834 54.99904 12843 ft 347 kts 303°
2026-05-06 07:55 25.31103 54.97634 13353 ft 349 kts 302°
2026-05-06 07:55 25.32381 54.95347 13842 ft 352 kts 302°
2026-05-06 07:56 25.33661 54.93041 14311 ft 354 kts 301°
2026-05-06 07:56 25.34806 54.90624 14783 ft 357 kts 295°
2026-05-06 07:56 25.35722 54.88070 15277 ft 359 kts 289°
2026-05-06 07:56 25.36490 54.85445 15747 ft 361 kts 287°
2026-05-06 07:57 25.37233 54.82792 16192 ft 363 kts 287°
2026-05-06 07:57 25.37979 54.80123 16652 ft 365 kts 287°
2026-05-06 07:57 25.38735 54.77443 17108 ft 367 kts 287°
2026-05-06 07:57 25.39499 54.74750 17543 ft 369 kts 287°
2026-05-06 07:58 25.40270 54.72041 17956 ft 372 kts 287°
2026-05-06 07:58 25.41046 54.69317 18392 ft 373 kts 287°
2026-05-06 07:58 25.41826 54.66584 18836 ft 374 kts 287°
2026-05-06 07:58 25.42607 54.63843 19260 ft 375 kts 287°
2026-05-06 07:59 25.43392 54.61094 19688 ft 377 kts 287°
2026-05-06 07:59 25.44207 54.58345 20117 ft 378 kts 288°
2026-05-06 07:59 25.45031 54.55591 20522 ft 379 kts 288°
2026-05-06 07:59 25.45855 54.52828 20920 ft 380 kts 288°
2026-05-06 08:00 25.46678 54.50055 21322 ft 381 kts 288°
2026-05-06 08:00 25.47501 54.47274 21723 ft 382 kts 288°
2026-05-06 08:00 25.48325 54.44485 22112 ft 383 kts 288°
2026-05-06 08:00 25.49149 54.41688 22497 ft 383 kts 287°
2026-05-06 08:01 25.49975 54.38883 22879 ft 384 kts 287°
2026-05-06 08:01 25.50801 54.36073 23257 ft 385 kts 287°
2026-05-06 08:01 25.51625 54.33258 23622 ft 385 kts 287°
2026-05-06 08:01 25.52450 54.30441 23981 ft 386 kts 287°
2026-05-06 08:02 25.53278 54.27617 24326 ft 387 kts 287°
2026-05-06 08:02 25.54109 54.24788 24670 ft 388 kts 286°
2026-05-06 08:02 25.54943 54.21955 25014 ft 388 kts 286°
2026-05-06 08:02 25.55779 54.19117 25339 ft 389 kts 286°
2026-05-06 08:03 25.56613 54.16271 25660 ft 390 kts 286°
2026-05-06 08:03 25.57448 54.13418 25980 ft 391 kts 286°
2026-05-06 08:03 25.58284 54.10556 26285 ft 392 kts 286°
2026-05-06 08:03 25.59122 54.07690 26598 ft 392 kts 286°
2026-05-06 08:04 25.59958 54.04820 26905 ft 392 kts 285°
2026-05-06 08:04 25.60785 54.01947 27200 ft 393 kts 285°
2026-05-06 08:04 25.61609 53.99068 27501 ft 393 kts 285°
2026-05-06 08:04 25.62430 53.96189 27778 ft 394 kts 285°
2026-05-06 08:05 25.63252 53.93301 28049 ft 394 kts 285°
2026-05-06 08:05 25.64074 53.90408 28309 ft 395 kts 285°
2026-05-06 08:05 25.64897 53.87508 28570 ft 395 kts 285°
2026-05-06 08:05 25.65720 53.84604 28836 ft 395 kts 285°
2026-05-06 08:06 25.66541 53.81697 29091 ft 396 kts 285°
2026-05-06 08:06 25.67363 53.78787 29306 ft 397 kts 285°
2026-05-06 08:06 25.68188 53.75867 29512 ft 399 kts 285°
2026-05-06 08:06 25.69018 53.72936 29735 ft 400 kts 284°
2026-05-06 08:07 25.69851 53.69997 29940 ft 401 kts 284°
2026-05-06 08:07 25.70684 53.67049 30136 ft 403 kts 284°
2026-05-06 08:07 25.71519 53.64086 30337 ft 404 kts 284°
2026-05-06 08:07 25.72351 53.61115 30530 ft 405 kts 284°
2026-05-06 08:08 25.73183 53.58136 30711 ft 406 kts 284°
2026-05-06 08:08 25.74019 53.55146 30890 ft 408 kts 284°
2026-05-06 08:08 25.74858 53.52146 31079 ft 408 kts 284°
2026-05-06 08:08 25.75703 53.49141 31268 ft 409 kts 284°
2026-05-06 08:09 25.76555 53.46131 31445 ft 410 kts 284°
2026-05-06 08:09 25.77406 53.43113 31613 ft 411 kts 284°
2026-05-06 08:09 25.78257 53.40085 31775 ft 412 kts 284°
2026-05-06 08:09 25.79107 53.37048 31935 ft 413 kts 284°
2026-05-06 08:10 25.79961 53.33991 32107 ft 414 kts 284°
2026-05-06 08:10 25.80809 53.30944 32276 ft 415 kts 283°
2026-05-06 08:10 25.81658 53.27889 32426 ft 416 kts 284°
2026-05-06 08:10 25.82511 53.24831 32613 ft 416 kts 284°
2026-05-06 08:11 25.83366 53.21773 32803 ft 416 kts 284°
2026-05-06 08:11 25.84330 53.18745 32980 ft 418 kts 287°
2026-05-06 08:11 25.85437 53.15760 33149 ft 420 kts 290°
2026-05-06 08:11 25.86634 53.12806 33318 ft 421 kts 290°
2026-05-06 08:12 25.87837 53.09852 33494 ft 421 kts 290°
2026-05-06 08:12 25.89039 53.06898 33670 ft 421 kts 290°
2026-05-06 08:12 25.90239 53.03944 33815 ft 421 kts 290°
2026-05-06 08:12 25.91441 53.00983 33820 ft 422 kts 290°
2026-05-06 08:13 25.93845 52.95052 33826 ft 422 kts 290°
2026-05-06 08:13 25.96244 52.89119 33822 ft 422 kts 290°
2026-05-06 08:14 25.98639 52.83182 33814 ft 422 kts 290°
2026-05-06 08:14 26.01037 52.77238 33810 ft 422 kts 290°
2026-05-06 08:15 26.03586 52.71361 33809 ft 423 kts 292°
2026-05-06 08:15 26.06219 52.65519 33809 ft 423 kts 292°
2026-05-06 08:16 26.08841 52.59674 33808 ft 423 kts 292°
2026-05-06 08:16 26.11461 52.53834 33807 ft 423 kts 292°
2026-05-06 08:17 26.14100 52.48008 33809 ft 422 kts 292°
2026-05-06 08:17 26.16727 52.42182 33811 ft 422 kts 291°
2026-05-06 08:18 26.19345 52.36345 33808 ft 422 kts 291°
2026-05-06 08:18 26.21967 52.30501 33807 ft 422 kts 291°
2026-05-06 08:19 26.24530 52.24645 33806 ft 421 kts 290°
2026-05-06 08:19 26.27062 52.18775 33806 ft 421 kts 290°
2026-05-06 08:20 26.29588 52.12904 33809 ft 422 kts 290°
2026-05-06 08:20 26.32122 52.07028 33809 ft 422 kts 290°
2026-05-06 08:21 26.34660 52.01158 33816 ft 421 kts 290°
2026-05-06 08:21 26.37172 51.95275 33822 ft 420 kts 288°
2026-05-06 08:22 26.39318 51.89261 33826 ft 418 kts 285°
2026-05-06 08:22 26.41341 51.83212 33828 ft 418 kts 285°
2026-05-06 08:23 26.43370 51.77158 33828 ft 418 kts 285°
2026-05-06 08:23 26.45394 51.71107 33829 ft 417 kts 285°
2026-05-06 08:24 26.47417 51.65058 33825 ft 417 kts 285°
2026-05-06 08:24 26.49445 51.59014 33826 ft 417 kts 285°
2026-05-06 08:25 26.51467 51.52961 33823 ft 416 kts 285°
2026-05-06 08:25 26.53477 51.46910 33825 ft 416 kts 285°
2026-05-06 08:26 26.55474 51.40868 33824 ft 416 kts 285°
2026-05-06 08:26 26.57467 51.34822 33822 ft 416 kts 284°
2026-05-06 08:27 26.59462 51.28783 33824 ft 415 kts 285°
2026-05-06 08:27 26.61472 51.22754 33822 ft 415 kts 285°
2026-05-06 08:28 26.63470 51.16723 33823 ft 415 kts 285°
2026-05-06 08:28 26.65458 51.10685 33824 ft 415 kts 284°
2026-05-06 08:29 26.67442 51.04651 33822 ft 415 kts 284°
2026-05-06 08:29 26.69422 50.98601 33823 ft 414 kts 284°
2026-05-06 08:30 26.71366 50.92551 33822 ft 414 kts 284°
2026-05-06 08:30 26.73292 50.86513 33824 ft 413 kts 284°
2026-05-06 08:31 26.75209 50.80479 33824 ft 413 kts 284°
2026-05-06 08:31 26.77148 50.74449 33828 ft 414 kts 285°
2026-05-06 08:32 26.79492 50.68554 33829 ft 418 kts 290°
2026-05-06 08:32 26.82376 50.62879 33830 ft 423 kts 296°
2026-05-06 08:33 26.85799 50.57486 33832 ft 427 kts 301°
2026-05-06 08:33 26.89517 50.52312 33835 ft 426 kts 302°
2026-05-06 08:34 26.95462 50.44826 33837 ft 431 kts 306°
2026-05-06 08:35 26.99558 50.39947 33842 ft 430 kts 306°
2026-05-06 08:35 27.03652 50.35066 33840 ft 430 kts 305°
2026-05-06 08:36 27.07728 50.30178 33834 ft 429 kts 304°
2026-05-06 08:36 27.11778 50.25281 33829 ft 429 kts 304°
2026-05-06 08:37 27.16022 50.20538 33833 ft 435 kts 309°
2026-05-06 08:37 27.20754 50.16241 33844 ft 441 kts 314°
2026-05-06 08:38 27.25675 50.12158 33855 ft 440 kts 314°
2026-05-06 08:38 27.30590 50.08085 33848 ft 439 kts 315°
2026-05-06 08:39 27.35499 50.04022 33861 ft 438 kts 314°
2026-05-06 08:39 27.40319 49.99884 33850 ft 435 kts 313°
2026-05-06 08:40 27.45072 49.95695 33855 ft 434 kts 313°
2026-05-06 08:40 27.49824 49.91504 33853 ft 435 kts 313°
2026-05-06 08:41 27.54582 49.87307 33854 ft 434 kts 313°
2026-05-06 08:41 27.59332 49.83110 33852 ft 434 kts 312°
2026-05-06 08:42 27.64080 49.78913 33861 ft 434 kts 312°
2026-05-06 08:42 27.68813 49.74716 33854 ft 433 kts 312°
2026-05-06 08:43 27.73540 49.70517 33856 ft 432 kts 312°
2026-05-06 08:43 27.78268 49.66322 33856 ft 432 kts 312°
2026-05-06 08:44 27.83000 49.62125 33859 ft 432 kts 312°
2026-05-06 08:44 27.87715 49.57921 33859 ft 431 kts 312°
2026-05-06 08:45 27.92419 49.53709 33860 ft 431 kts 311°
2026-05-06 08:45 27.97111 49.49495 33863 ft 431 kts 311°
2026-05-06 08:46 28.01803 49.45282 33857 ft 431 kts 311°
2026-05-06 08:46 28.06489 49.41054 33860 ft 431 kts 311°
2026-05-06 08:47 28.11145 49.36811 33857 ft 430 kts 311°
2026-05-06 08:47 28.15794 49.32558 33865 ft 429 kts 310°
2026-05-06 08:48 28.20421 49.28316 33858 ft 428 kts 310°
2026-05-06 08:48 28.25045 49.24072 33863 ft 429 kts 310°
2026-05-06 08:49 28.29685 49.19823 33857 ft 430 kts 310°
2026-05-06 08:49 28.34322 49.15569 33854 ft 428 kts 310°
2026-05-06 08:50 28.38978 49.11331 33864 ft 431 kts 312°
2026-05-06 08:50 28.43930 49.07415 33866 ft 435 kts 315°
2026-05-06 08:51 28.48960 49.03572 33867 ft 436 kts 315°
2026-05-06 08:51 28.53983 48.99725 33870 ft 435 kts 315°
2026-05-06 08:52 28.59001 48.95869 33871 ft 436 kts 315°
2026-05-06 08:52 28.64012 48.92012 33878 ft 435 kts 315°
2026-05-06 08:53 28.69017 48.88151 33873 ft 435 kts 315°
2026-05-06 08:53 28.74021 48.84278 33874 ft 435 kts 315°
2026-05-06 08:54 28.79024 48.80410 33878 ft 434 kts 315°
2026-05-06 08:54 28.84055 48.76557 33876 ft 436 kts 315°
2026-05-06 08:55 28.89109 48.72712 33879 ft 435 kts 315°
2026-05-06 08:55 28.94139 48.68865 33882 ft 436 kts 315°
2026-05-06 08:56 28.99166 48.65007 33879 ft 435 kts 315°
2026-05-06 08:56 29.04200 48.61136 33878 ft 435 kts 315°
2026-05-06 08:57 29.09216 48.57272 33877 ft 435 kts 315°
2026-05-06 08:57 29.14233 48.53402 33871 ft 436 kts 315°
2026-05-06 08:58 29.19251 48.49527 33875 ft 436 kts 315°
2026-05-06 08:58 29.24268 48.45647 33877 ft 435 kts 315°
2026-05-06 08:59 29.29279 48.41762 33875 ft 436 kts 315°
2026-05-06 08:59 29.34301 48.37861 33878 ft 436 kts 315°
2026-05-06 09:00 29.39315 48.33964 33878 ft 436 kts 314°
2026-05-06 09:00 29.44392 48.30137 33879 ft 440 kts 317°
2026-05-06 09:01 29.49726 48.26615 33877 ft 443 kts 319°
2026-05-06 09:01 29.55082 48.23109 33882 ft 444 kts 319°
2026-05-06 09:02 29.60434 48.19590 33875 ft 443 kts 319°
2026-05-06 09:02 29.65777 48.16067 33875 ft 443 kts 318°
2026-05-06 09:03 29.71108 48.12545 33880 ft 442 kts 318°
2026-05-06 09:03 29.76437 48.09017 33891 ft 442 kts 318°
2026-05-06 09:04 29.81758 48.05486 33895 ft 442 kts 318°
2026-05-06 09:04 29.87077 48.01948 33896 ft 442 kts 318°
2026-05-06 09:05 29.92401 47.98406 33896 ft 442 kts 318°
2026-05-06 09:05 29.97632 47.94738 33896 ft 435 kts 314°
2026-05-06 09:06 30.02416 47.90564 33901 ft 426 kts 308°
2026-05-06 09:06 30.06680 47.85924 33904 ft 419 kts 302°
2026-05-06 09:07 30.10528 47.80920 33903 ft 416 kts 300°
2026-05-06 09:07 30.14312 47.75855 33900 ft 417 kts 300°
2026-05-06 09:08 30.18105 47.70780 33902 ft 417 kts 300°
2026-05-06 09:08 30.21896 47.65702 33903 ft 418 kts 301°
2026-05-06 09:09 30.25688 47.60621 33900 ft 418 kts 300°
2026-05-06 09:09 30.29476 47.55535 33895 ft 418 kts 301°
2026-05-06 09:10 30.33262 47.50444 33902 ft 419 kts 301°
2026-05-06 09:10 30.37059 47.45332 33900 ft 419 kts 301°
2026-05-06 09:11 30.40849 47.40219 33902 ft 418 kts 301°
2026-05-06 09:11 30.44625 47.35112 33904 ft 418 kts 301°
2026-05-06 09:12 30.48400 47.29998 33909 ft 417 kts 300°
2026-05-06 09:12 30.52134 47.24868 33906 ft 414 kts 298°
2026-05-06 09:13 30.55447 47.19478 33907 ft 409 kts 293°
2026-05-06 09:13 30.58223 47.13799 33909 ft 403 kts 288°
2026-05-06 09:14 30.60478 47.07904 33915 ft 400 kts 284°
2026-05-06 09:14 30.62559 47.01937 33911 ft 400 kts 283°
2026-05-06 09:15 30.64635 46.95951 33918 ft 400 kts 283°
2026-05-06 09:15 30.66699 46.89979 33917 ft 399 kts 283°
2026-05-06 09:16 30.68762 46.84003 33920 ft 400 kts 284°
2026-05-06 09:16 30.70820 46.78027 33919 ft 400 kts 284°
2026-05-06 09:17 30.72882 46.72031 33919 ft 400 kts 284°
2026-05-06 09:17 30.74945 46.66022 33921 ft 401 kts 284°
2026-05-06 09:18 30.77007 46.60005 33922 ft 401 kts 284°
2026-05-06 09:18 30.79065 46.53986 33923 ft 401 kts 283°
2026-05-06 09:19 30.81118 46.47974 33925 ft 401 kts 284°
2026-05-06 09:19 30.83170 46.41956 33924 ft 402 kts 283°
2026-05-06 09:20 30.85218 46.35936 33930 ft 401 kts 283°
2026-05-06 09:20 30.87259 46.29923 33931 ft 400 kts 283°
2026-05-06 09:21 30.89297 46.23913 33928 ft 401 kts 283°
2026-05-06 09:21 30.91332 46.17897 33934 ft 400 kts 283°
2026-05-06 09:22 30.93367 46.11869 33932 ft 401 kts 283°
2026-05-06 09:22 30.95400 46.05839 33936 ft 401 kts 283°
2026-05-06 09:23 30.97431 45.99806 33940 ft 401 kts 283°
2026-05-06 09:23 30.99456 45.93781 33941 ft 401 kts 283°
2026-05-06 09:24 31.01477 45.87751 33939 ft 400 kts 283°
2026-05-06 09:24 31.03496 45.81724 33941 ft 400 kts 283°
2026-05-06 09:25 31.05509 45.75695 33940 ft 400 kts 283°
2026-05-06 09:25 31.07518 45.69672 33940 ft 399 kts 283°
2026-05-06 09:26 31.09524 45.63646 33942 ft 400 kts 283°
2026-05-06 09:26 31.11530 45.57610 33945 ft 400 kts 283°
2026-05-06 09:27 31.13535 45.51563 33948 ft 401 kts 283°
2026-05-06 09:27 31.15537 45.45513 33948 ft 401 kts 283°
2026-05-06 09:28 31.17539 45.39455 33947 ft 401 kts 283°
2026-05-06 09:28 31.19537 45.33395 33952 ft 401 kts 282°
2026-05-06 09:29 31.21530 45.27343 33950 ft 400 kts 282°
2026-05-06 09:29 31.23520 45.21286 33947 ft 400 kts 282°
2026-05-06 09:30 31.25507 45.15232 33948 ft 400 kts 282°
2026-05-06 09:30 31.27490 45.09179 33954 ft 400 kts 282°
2026-05-06 09:31 31.29467 45.03126 33956 ft 400 kts 282°
2026-05-06 09:31 31.31442 44.97070 33955 ft 399 kts 282°
2026-05-06 09:32 31.33410 44.91021 33959 ft 399 kts 282°
2026-05-06 09:32 31.35376 44.84968 33962 ft 400 kts 282°
2026-05-06 09:33 31.37340 44.78910 33962 ft 399 kts 282°
2026-05-06 09:33 31.39302 44.72849 33964 ft 399 kts 282°
2026-05-06 09:34 31.41257 44.66792 33966 ft 399 kts 282°
2026-05-06 09:34 31.43208 44.60735 33968 ft 399 kts 282°
2026-05-06 09:35 31.45155 44.54678 33971 ft 399 kts 282°
2026-05-06 09:35 31.47099 44.48618 33977 ft 399 kts 282°
2026-05-06 09:36 31.49039 44.42547 33979 ft 400 kts 282°
2026-05-06 09:36 31.50977 44.36459 33989 ft 400 kts 282°
2026-05-06 09:37 31.52920 44.30372 33991 ft 399 kts 282°
2026-05-06 09:37 31.54877 44.24292 33994 ft 400 kts 282°
2026-05-06 09:38 31.56827 44.18206 34011 ft 399 kts 282°
2026-05-06 09:38 31.58763 44.12131 34004 ft 398 kts 282°
2026-05-06 09:39 31.60692 44.06054 34014 ft 398 kts 282°
2026-05-06 09:39 31.62617 43.99973 34014 ft 399 kts 282°
2026-05-06 09:40 31.64540 43.93886 34012 ft 398 kts 282°
2026-05-06 09:40 31.67416 43.84755 34004 ft 399 kts 282°
2026-05-06 09:41 31.69333 43.78655 34009 ft 399 kts 282°
2026-05-06 09:41 31.71244 43.72557 34018 ft 399 kts 282°
2026-05-06 09:42 31.73152 43.66458 34018 ft 399 kts 282°
2026-05-06 09:42 31.75057 43.60357 34020 ft 398 kts 282°
2026-05-06 09:43 31.76956 43.54256 34030 ft 398 kts 282°
2026-05-06 09:43 31.78850 43.48154 34031 ft 399 kts 282°
2026-05-06 09:44 31.80741 43.42034 34024 ft 399 kts 282°
2026-05-06 09:44 31.82635 43.35912 34021 ft 399 kts 282°
2026-05-06 09:45 31.84535 43.29793 34025 ft 399 kts 282°
2026-05-06 09:45 31.86440 43.23676 34025 ft 400 kts 282°
2026-05-06 09:46 31.88336 43.17547 34034 ft 400 kts 282°
2026-05-06 09:46 31.90221 43.11422 34027 ft 399 kts 282°
2026-05-06 09:47 31.92097 43.05309 34028 ft 398 kts 282°
2026-05-06 09:47 31.93967 42.99199 34024 ft 398 kts 282°
2026-05-06 09:48 31.95833 42.93082 34026 ft 397 kts 282°
2026-05-06 09:48 31.97696 42.86968 34029 ft 398 kts 282°
2026-05-06 09:49 31.99555 42.80848 34034 ft 398 kts 282°
2026-05-06 09:49 32.01413 42.74723 34032 ft 400 kts 282°
2026-05-06 09:50 32.02343 42.71642 34149 ft 401 kts 282°
2026-05-06 09:50 32.03274 42.68563 34352 ft 400 kts 282°
2026-05-06 09:50 32.04201 42.65492 34554 ft 399 kts 282°
2026-05-06 09:50 32.05123 42.62425 34739 ft 398 kts 282°
2026-05-06 09:51 32.06044 42.59364 34920 ft 397 kts 282°
2026-05-06 09:51 32.06965 42.56303 35070 ft 397 kts 282°
2026-05-06 09:51 32.07887 42.53244 35217 ft 397 kts 282°
2026-05-06 09:51 32.08956 42.50229 35365 ft 404 kts 288°
2026-05-06 09:52 32.10354 42.47337 35501 ft 411 kts 294°
2026-05-06 09:52 32.12058 42.44606 35623 ft 418 kts 301°
2026-05-06 09:52 32.14062 42.42085 35750 ft 426 kts 307°
2026-05-06 09:52 32.16355 42.39824 35882 ft 435 kts 314°
2026-05-06 09:53 32.18921 42.37875 36006 ft 444 kts 321°
2026-05-06 09:53 32.21723 42.36254 36026 ft 451 kts 326°
2026-05-06 09:53 32.27488 42.33302 36032 ft 451 kts 326°
2026-05-06 09:54 32.33253 42.30383 36031 ft 451 kts 326°
2026-05-06 09:54 32.39010 42.27447 36030 ft 452 kts 326°
2026-05-06 09:55 32.44768 42.24498 36036 ft 451 kts 326°
2026-05-06 09:55 32.50520 42.21547 36040 ft 451 kts 326°
2026-05-06 09:56 32.56274 42.18590 36042 ft 451 kts 326°
2026-05-06 09:56 32.59153 42.17108 35919 ft 451 kts 326°
2026-05-06 09:56 32.62030 42.15626 35988 ft 452 kts 326°
2026-05-06 09:57 32.67801 42.12649 36045 ft 453 kts 326°
2026-05-06 09:57 32.73565 42.09674 36060 ft 451 kts 326°
2026-05-06 09:58 32.79314 42.06702 36058 ft 451 kts 326°
2026-05-06 09:58 32.85057 42.03728 36016 ft 451 kts 326°
2026-05-06 09:59 32.90801 42.00748 36013 ft 451 kts 326°
2026-05-06 09:59 32.96551 41.97760 36021 ft 452 kts 326°
2026-05-06 10:00 33.02310 41.94764 36025 ft 452 kts 326°
2026-05-06 10:00 33.08061 41.91765 36040 ft 452 kts 326°
2026-05-06 10:01 33.13820 41.88752 36041 ft 453 kts 326°
2026-05-06 10:01 33.19571 41.85738 36042 ft 452 kts 326°
2026-05-06 10:02 33.25324 41.82722 36043 ft 452 kts 326°
2026-05-06 10:02 33.30808 41.79308 36040 ft 434 kts 313°
2026-05-06 10:03 33.33083 41.77026 36044 ft 423 kts 305°
2026-05-06 10:03 33.34994 41.74426 36047 ft 412 kts 297°
2026-05-06 10:03 33.37694 41.68586 36049 ft 395 kts 282°
2026-05-06 10:04 33.38913 41.62315 36042 ft 383 kts 269°
2026-05-06 10:04 33.39221 41.55988 36045 ft 382 kts 268°
2026-05-06 10:05 33.39485 41.49665 36047 ft 382 kts 267°
2026-05-06 10:05 33.39740 41.43337 36045 ft 382 kts 267°
2026-05-06 10:06 33.39989 41.37019 36046 ft 382 kts 267°
2026-05-06 10:06 33.40234 41.30696 36034 ft 382 kts 266°
2026-05-06 10:07 33.40474 41.24374 36038 ft 381 kts 267°
2026-05-06 10:07 33.40714 41.18041 36035 ft 382 kts 267°
2026-05-06 10:08 33.40948 41.11707 36038 ft 382 kts 267°
2026-05-06 10:08 33.41181 41.05378 36043 ft 382 kts 267°
2026-05-06 10:09 33.41410 40.99041 36047 ft 382 kts 267°
2026-05-06 10:09 33.41636 40.92704 36040 ft 382 kts 267°
2026-05-06 10:10 33.41856 40.86371 36039 ft 382 kts 267°
2026-05-06 10:10 33.42077 40.80028 36049 ft 383 kts 267°
2026-05-06 10:11 33.42291 40.73683 36049 ft 383 kts 267°
2026-05-06 10:11 33.42503 40.67343 36041 ft 383 kts 267°
2026-05-06 10:12 33.42713 40.60994 36047 ft 383 kts 267°
2026-05-06 10:12 33.42919 40.54635 36046 ft 383 kts 267°
2026-05-06 10:13 33.43121 40.48275 36048 ft 383 kts 267°
2026-05-06 10:13 33.43320 40.41919 36054 ft 383 kts 267°
2026-05-06 10:14 33.43516 40.35570 36047 ft 383 kts 267°
2026-05-06 10:14 33.43707 40.29215 36050 ft 383 kts 267°
2026-05-06 10:15 33.43894 40.22861 36046 ft 383 kts 266°
2026-05-06 10:15 33.44076 40.16504 36048 ft 383 kts 266°
2026-05-06 10:16 33.44251 40.10148 36047 ft 383 kts 266°
2026-05-06 10:16 33.44428 40.03796 36056 ft 383 kts 267°
2026-05-06 10:17 33.44615 39.97436 36055 ft 383 kts 267°
2026-05-06 10:17 33.44803 39.91073 36058 ft 384 kts 267°
2026-05-06 10:18 33.44981 39.84703 36054 ft 385 kts 267°
2026-05-06 10:18 33.45152 39.78321 36063 ft 385 kts 267°
2026-05-06 10:19 33.45318 39.71932 36063 ft 385 kts 267°
2026-05-06 10:19 33.45479 39.65543 36064 ft 385 kts 267°
2026-05-06 10:20 33.45638 39.59157 36062 ft 385 kts 267°
2026-05-06 10:20 33.45793 39.52766 36059 ft 386 kts 267°
2026-05-06 10:21 33.45943 39.46361 36059 ft 386 kts 267°
2026-05-06 10:21 33.46091 39.39959 36061 ft 386 kts 267°
2026-05-06 10:22 33.46234 39.33566 36059 ft 384 kts 266°
2026-05-06 10:22 33.46375 39.27182 36064 ft 385 kts 266°
2026-05-06 10:23 33.46508 39.20802 36064 ft 384 kts 267°
2026-05-06 10:23 33.46637 39.14423 36072 ft 385 kts 267°
2026-05-06 10:24 33.46763 39.08033 36070 ft 386 kts 266°
2026-05-06 10:24 33.46889 39.01637 36068 ft 386 kts 267°
2026-05-06 10:25 33.47137 38.95222 36067 ft 386 kts 268°
2026-05-06 10:25 33.47402 38.88813 36056 ft 386 kts 268°
2026-05-06 10:26 33.47650 38.82410 36063 ft 386 kts 268°
2026-05-06 10:26 33.47922 38.75997 36060 ft 388 kts 270°
2026-05-06 10:27 33.48783 38.69600 36061 ft 394 kts 277°
2026-05-06 10:27 33.50406 38.63312 36060 ft 399 kts 284°
2026-05-06 10:28 33.52798 38.57272 36060 ft 406 kts 292°
2026-05-06 10:28 33.55781 38.51512 36061 ft 408 kts 295°
2026-05-06 10:29 33.58837 38.45765 36060 ft 411 kts 295°
2026-05-06 10:29 33.61897 38.40018 36059 ft 410 kts 295°
2026-05-06 10:30 33.64952 38.34274 36052 ft 409 kts 295°
2026-05-06 10:30 33.68011 38.28514 36063 ft 409 kts 295°
2026-05-06 10:31 33.71062 38.22758 36056 ft 409 kts 295°
2026-05-06 10:31 33.74110 38.16999 36056 ft 409 kts 295°
2026-05-06 10:32 33.77153 38.11237 36053 ft 410 kts 295°
2026-05-06 10:32 33.80193 38.05460 36064 ft 410 kts 295°
2026-05-06 10:33 33.83231 37.99681 36060 ft 410 kts 294°
2026-05-06 10:33 33.86267 37.93893 36057 ft 410 kts 295°
2026-05-06 10:34 33.89320 37.88110 36062 ft 411 kts 295°
2026-05-06 10:34 33.92382 37.82304 36069 ft 412 kts 295°
2026-05-06 10:35 33.95435 37.76484 36067 ft 411 kts 295°
2026-05-06 10:35 33.98473 37.70669 36064 ft 411 kts 295°
2026-05-06 10:36 34.01510 37.64840 36062 ft 412 kts 295°
2026-05-06 10:36 34.04546 37.59010 36067 ft 412 kts 295°
2026-05-06 10:37 34.07567 37.53182 36064 ft 410 kts 295°
2026-05-06 10:37 34.10584 37.47355 36064 ft 411 kts 295°
2026-05-06 10:38 34.13597 37.41520 36064 ft 411 kts 295°
2026-05-06 10:38 34.16597 37.35686 36064 ft 409 kts 294°
2026-05-06 10:39 34.19137 37.29605 36061 ft 404 kts 287°
2026-05-06 10:39 34.20969 37.23262 36065 ft 399 kts 280°
2026-05-06 10:40 34.22095 37.16753 36063 ft 395 kts 274°
2026-05-06 10:40 34.22675 37.10175 36063 ft 395 kts 272°
2026-05-06 10:41 34.23192 37.03603 36057 ft 394 kts 272°
2026-05-06 10:41 34.23704 36.97014 36068 ft 394 kts 272°
2026-05-06 10:42 34.24211 36.90445 36064 ft 394 kts 272°
2026-05-06 10:42 34.24709 36.83871 36063 ft 394 kts 272°
2026-05-06 10:43 34.25209 36.77288 36073 ft 395 kts 272°
2026-05-06 10:44 34.25943 36.67406 36069 ft 395 kts 272°
2026-05-06 10:44 34.26431 36.60810 36063 ft 396 kts 272°
2026-05-06 10:45 34.26789 36.54197 36073 ft 396 kts 271°
2026-05-06 10:45 34.27055 36.47584 36077 ft 394 kts 271°
2026-05-06 10:46 34.27309 36.40979 36071 ft 395 kts 270°
2026-05-06 10:46 34.27554 36.34366 36071 ft 395 kts 270°
2026-05-06 10:47 34.27796 36.27766 36066 ft 394 kts 270°
2026-05-06 10:47 34.28032 36.21163 36064 ft 395 kts 270°
2026-05-06 10:48 34.28260 36.14555 36071 ft 394 kts 270°
2026-05-06 10:48 34.28486 36.07953 36075 ft 394 kts 270°
2026-05-06 10:49 34.28711 36.01344 36077 ft 396 kts 270°
2026-05-06 10:49 34.28993 35.94719 36080 ft 395 kts 271°
2026-05-06 10:50 34.29301 35.88103 36081 ft 395 kts 271°
2026-05-06 10:50 34.29597 35.81474 36067 ft 396 kts 271°
2026-05-06 10:51 34.30047 35.74860 36062 ft 396 kts 275°
2026-05-06 10:51 34.31004 35.68319 36050 ft 398 kts 280°
2026-05-06 10:52 34.32468 35.61861 36048 ft 400 kts 285°
2026-05-06 10:52 34.34242 35.55497 36045 ft 400 kts 285°
2026-05-06 10:53 34.36021 35.49140 36044 ft 400 kts 285°
2026-05-06 10:53 34.37803 35.42788 36042 ft 400 kts 286°
2026-05-06 10:54 34.39579 35.36439 36042 ft 399 kts 286°
2026-05-06 10:54 34.41358 35.30061 36044 ft 400 kts 285°
2026-05-06 10:55 34.43129 35.23701 36050 ft 400 kts 286°
2026-05-06 10:55 34.44895 35.17338 36049 ft 400 kts 285°
2026-05-06 10:56 34.46654 35.10969 36052 ft 400 kts 286°
2026-05-06 10:56 34.48418 35.04607 36054 ft 399 kts 286°
2026-05-06 10:57 34.50221 34.98254 36048 ft 400 kts 287°
2026-05-06 10:57 34.52021 34.91891 36061 ft 400 kts 287°
2026-05-06 10:58 34.53809 34.85526 36066 ft 400 kts 287°
2026-05-06 10:58 34.55591 34.79153 36060 ft 400 kts 287°
2026-05-06 10:59 34.57366 34.72778 36056 ft 400 kts 287°
2026-05-06 10:59 34.59137 34.66407 36058 ft 400 kts 286°
2026-05-06 11:00 34.60904 34.60033 36064 ft 400 kts 287°
2026-05-06 11:00 34.62662 34.53668 36057 ft 399 kts 287°
2026-05-06 11:01 34.64420 34.47295 36059 ft 400 kts 287°
2026-05-06 11:01 34.66172 34.40915 36065 ft 400 kts 287°
2026-05-06 11:02 34.67912 34.34570 36055 ft 399 kts 286°
2026-05-06 11:02 34.69658 34.28183 36059 ft 400 kts 286°
2026-05-06 11:03 34.71396 34.21791 36064 ft 400 kts 287°
2026-05-06 11:03 34.73132 34.15397 36048 ft 400 kts 287°
2026-05-06 11:04 34.74873 34.08998 36059 ft 400 kts 287°
2026-05-06 11:04 34.76602 34.02601 36059 ft 400 kts 287°
2026-05-06 11:05 34.78324 33.96185 36066 ft 400 kts 287°
2026-05-06 11:05 34.80056 33.89777 36055 ft 400 kts 287°
2026-05-06 11:06 34.81791 33.83366 36049 ft 400 kts 287°
2026-05-06 11:06 34.83510 33.76954 36057 ft 400 kts 287°
2026-05-06 11:07 34.85218 33.70538 36053 ft 400 kts 287°
2026-05-06 11:07 34.86926 33.64124 36061 ft 399 kts 287°
2026-05-06 11:08 34.88732 33.57746 36053 ft 400 kts 289°
2026-05-06 11:08 34.90612 33.51385 36060 ft 400 kts 288°
2026-05-06 11:09 34.92473 33.45009 36058 ft 401 kts 289°
2026-05-06 11:09 34.94332 33.38627 36069 ft 401 kts 289°
2026-05-06 11:10 34.96189 33.32243 36074 ft 401 kts 288°
2026-05-06 11:10 34.98046 33.25852 36076 ft 401 kts 288°
2026-05-06 11:11 34.99895 33.19446 36069 ft 402 kts 288°
2026-05-06 11:11 35.01748 33.13024 36067 ft 402 kts 288°
2026-05-06 11:12 35.03601 33.06616 36062 ft 402 kts 288°
2026-05-06 11:12 35.05438 33.00199 36063 ft 402 kts 288°
2026-05-06 11:13 35.07275 32.93778 36062 ft 402 kts 288°
2026-05-06 11:13 35.09047 32.87342 36059 ft 401 kts 288°
2026-05-06 11:14 35.10784 32.80888 36062 ft 402 kts 288°
2026-05-06 11:14 35.12512 32.74432 36061 ft 401 kts 288°
2026-05-06 11:15 35.14235 32.67971 36061 ft 401 kts 288°
2026-05-06 11:15 35.15956 32.61508 36060 ft 401 kts 288°
2026-05-06 11:16 35.17674 32.55039 36053 ft 402 kts 288°
2026-05-06 11:16 35.19389 32.48561 36050 ft 402 kts 288°
2026-05-06 11:17 35.21102 32.42073 36047 ft 402 kts 288°
2026-05-06 11:17 35.22811 32.35584 36055 ft 403 kts 288°
2026-05-06 11:18 35.24517 32.29082 36056 ft 403 kts 287°
2026-05-06 11:18 35.26219 32.22579 36051 ft 402 kts 287°
2026-05-06 11:19 35.27912 32.16076 36047 ft 403 kts 287°
2026-05-06 11:19 35.29607 32.09557 36050 ft 403 kts 288°
2026-05-06 11:20 35.31313 32.03053 36056 ft 402 kts 288°
2026-05-06 11:20 35.33044 31.96559 36050 ft 402 kts 288°
2026-05-06 11:21 35.34758 31.90071 36049 ft 402 kts 288°
2026-05-06 11:21 35.36464 31.83575 36047 ft 402 kts 288°
2026-05-06 11:22 35.38162 31.77077 36043 ft 402 kts 288°
2026-05-06 11:22 35.39857 31.70573 36041 ft 402 kts 288°
2026-05-06 11:23 35.41550 31.64056 36036 ft 403 kts 288°
2026-05-06 11:23 35.43241 31.57531 36040 ft 403 kts 288°
2026-05-06 11:24 35.44930 31.50999 36037 ft 402 kts 288°
2026-05-06 11:24 35.46611 31.44479 36040 ft 402 kts 288°
2026-05-06 11:25 35.48289 31.37952 36037 ft 403 kts 288°
2026-05-06 11:25 35.49963 31.31417 36041 ft 403 kts 288°
2026-05-06 11:26 35.51635 31.24882 36035 ft 402 kts 288°
2026-05-06 11:26 35.53300 31.18353 36036 ft 402 kts 288°
2026-05-06 11:27 35.54961 31.11818 36034 ft 402 kts 288°
2026-05-06 11:27 35.56619 31.05274 36039 ft 403 kts 288°
2026-05-06 11:28 35.58275 30.98712 36037 ft 404 kts 288°
2026-05-06 11:28 35.59923 30.92149 36034 ft 403 kts 288°
2026-05-06 11:29 35.61572 30.85593 36033 ft 403 kts 288°
2026-05-06 11:29 35.63270 30.79057 36037 ft 403 kts 289°
2026-05-06 11:30 35.64975 30.72524 36039 ft 403 kts 289°
2026-05-06 11:30 35.66667 30.65986 36036 ft 402 kts 289°
2026-05-06 11:31 35.68349 30.59443 36034 ft 403 kts 289°
2026-05-06 11:31 35.70026 30.52897 36034 ft 402 kts 289°
2026-05-06 11:32 35.71696 30.46359 36034 ft 402 kts 289°
2026-05-06 11:32 35.73360 30.39825 36035 ft 401 kts 289°
2026-05-06 11:33 35.75021 30.33280 36036 ft 402 kts 288°
2026-05-06 11:33 35.76678 30.26731 36031 ft 402 kts 289°
2026-05-06 11:34 35.78330 30.20182 36031 ft 402 kts 289°
2026-05-06 11:34 35.79974 30.13636 36033 ft 401 kts 289°
2026-05-06 11:35 35.81612 30.07088 36035 ft 401 kts 289°
2026-05-06 11:35 35.83251 30.00542 36031 ft 401 kts 289°
2026-05-06 11:36 35.85003 29.94042 36030 ft 400 kts 290°
2026-05-06 11:36 35.86786 29.87561 36033 ft 401 kts 290°
2026-05-06 11:37 35.88550 29.81077 36034 ft 400 kts 290°
2026-05-06 11:37 35.90302 29.74594 36033 ft 400 kts 290°
2026-05-06 11:38 35.92043 29.68109 36033 ft 399 kts 290°
2026-05-06 11:38 35.93777 29.61626 36031 ft 400 kts 290°
2026-05-06 11:39 35.95515 29.55131 36032 ft 400 kts 290°
2026-05-06 11:39 35.97281 29.48644 36034 ft 400 kts 291°
2026-05-06 11:40 35.99043 29.42151 36036 ft 400 kts 290°
2026-05-06 11:40 36.00794 29.35644 36033 ft 400 kts 291°
2026-05-06 11:41 36.02535 29.29140 36034 ft 400 kts 290°
2026-05-06 11:41 36.04274 29.22632 36035 ft 400 kts 290°
2026-05-06 11:42 36.06005 29.16128 36034 ft 400 kts 290°
2026-05-06 11:42 36.07732 29.09624 36030 ft 400 kts 290°
2026-05-06 11:43 36.09453 29.03116 36032 ft 400 kts 290°
2026-05-06 11:43 36.11176 28.96590 36034 ft 400 kts 290°
2026-05-06 11:44 36.13652 28.87180 36034 ft 400 kts 290°
2026-05-06 11:44 36.15364 28.80655 36029 ft 400 kts 290°
2026-05-06 11:45 36.17070 28.74130 36029 ft 400 kts 290°
2026-05-06 11:45 36.18768 28.67605 36031 ft 399 kts 290°
2026-05-06 11:46 36.20459 28.61082 36027 ft 399 kts 290°
2026-05-06 11:46 36.22147 28.54556 36031 ft 399 kts 290°
2026-05-06 11:47 36.23837 28.48037 36033 ft 398 kts 291°
2026-05-06 11:47 36.25531 28.41529 36028 ft 399 kts 291°
2026-05-06 11:48 36.27211 28.35014 36029 ft 398 kts 291°
2026-05-06 11:48 36.28880 28.28490 36030 ft 398 kts 290°
2026-05-06 11:49 36.30541 28.21963 36031 ft 398 kts 290°
2026-05-06 11:49 36.32199 28.15438 36033 ft 398 kts 290°
2026-05-06 11:50 36.33926 28.08956 36033 ft 396 kts 293°
2026-05-06 11:50 36.36061 28.02701 36038 ft 395 kts 296°
2026-05-06 11:51 36.38287 27.96481 36034 ft 395 kts 296°
2026-05-06 11:51 36.40509 27.90262 36040 ft 395 kts 296°
2026-05-06 11:52 36.42724 27.84041 36041 ft 395 kts 296°
2026-05-06 11:52 36.44937 27.77818 36042 ft 395 kts 296°
2026-05-06 11:53 36.47157 27.71588 36037 ft 396 kts 296°
2026-05-06 11:53 36.49392 27.65364 36043 ft 395 kts 296°
2026-05-06 11:54 36.51612 27.59135 36039 ft 395 kts 296°
2026-05-06 11:54 36.53820 27.52902 36038 ft 395 kts 296°
2026-05-06 11:55 36.56020 27.46668 36034 ft 395 kts 296°
2026-05-06 11:55 36.58218 27.40434 36051 ft 395 kts 296°
2026-05-06 11:56 36.60415 27.34172 36041 ft 396 kts 296°
2026-05-06 11:56 36.62612 27.27900 36050 ft 396 kts 295°
2026-05-06 11:57 36.64781 27.21673 36044 ft 396 kts 295°
2026-05-06 11:57 36.66968 27.15401 36048 ft 396 kts 296°
2026-05-06 11:58 36.69165 27.09137 36050 ft 396 kts 296°
2026-05-06 11:58 36.71376 27.02819 36061 ft 396 kts 296°
2026-05-06 11:59 36.73554 26.96554 36057 ft 396 kts 295°
2026-05-06 11:59 36.75733 26.90255 36050 ft 396 kts 296°
2026-05-06 12:00 36.77903 26.83955 36052 ft 396 kts 295°
2026-05-06 12:00 36.80067 26.77648 36051 ft 396 kts 295°
2026-05-06 12:01 36.82238 26.71325 36047 ft 397 kts 295°
2026-05-06 12:01 36.84410 26.65004 36048 ft 397 kts 296°
2026-05-06 12:02 36.86580 26.58680 36048 ft 397 kts 295°
2026-05-06 12:02 36.88747 26.52352 36052 ft 397 kts 295°
2026-05-06 12:03 36.90912 26.46037 36061 ft 397 kts 295°
2026-05-06 12:03 36.93062 26.39723 36068 ft 396 kts 295°
2026-05-06 12:04 36.95197 26.33402 36070 ft 396 kts 295°
2026-05-06 12:04 36.97332 26.27078 36070 ft 396 kts 295°
2026-05-06 12:05 36.99489 26.20754 36073 ft 397 kts 295°
2026-05-06 12:05 37.01656 26.14424 36075 ft 397 kts 295°
2026-05-06 12:06 37.03808 26.08096 36076 ft 397 kts 295°
2026-05-06 12:06 37.05953 26.01749 36075 ft 398 kts 295°
2026-05-06 12:07 37.08102 25.95375 36076 ft 399 kts 295°
2026-05-06 12:07 37.10251 25.88989 36075 ft 399 kts 295°
2026-05-06 12:08 37.12398 25.82585 36070 ft 400 kts 295°
2026-05-06 12:08 37.14540 25.76176 36069 ft 400 kts 295°
2026-05-06 12:09 37.16682 25.69752 36069 ft 401 kts 295°
2026-05-06 12:09 37.18825 25.63310 36074 ft 402 kts 295°
2026-05-06 12:10 37.20960 25.56863 36075 ft 401 kts 295°
2026-05-06 12:10 37.23096 25.50414 36076 ft 402 kts 294°
2026-05-06 12:11 37.25187 25.43922 36072 ft 403 kts 294°
2026-05-06 12:11 37.27268 25.37411 36072 ft 403 kts 293°
2026-05-06 12:12 37.29139 25.30766 36074 ft 404 kts 291°
2026-05-06 12:12 37.30930 25.24105 36075 ft 404 kts 290°
2026-05-06 12:13 37.32713 25.17431 36072 ft 404 kts 290°
2026-05-06 12:13 37.34489 25.10747 36070 ft 405 kts 290°
2026-05-06 12:14 37.36272 25.04041 36067 ft 406 kts 290°
2026-05-06 12:14 37.38077 24.97324 36066 ft 407 kts 291°
2026-05-06 12:15 37.39875 24.90606 36066 ft 406 kts 291°
2026-05-06 12:15 37.41660 24.83888 36067 ft 407 kts 290°
2026-05-06 12:16 37.43440 24.77156 36065 ft 407 kts 290°
2026-05-06 12:16 37.45214 24.70421 36056 ft 407 kts 290°
2026-05-06 12:17 37.46982 24.63678 36055 ft 407 kts 290°
2026-05-06 12:17 37.48747 24.56928 36053 ft 407 kts 290°
2026-05-06 12:18 37.50507 24.50178 36049 ft 407 kts 290°
2026-05-06 12:18 37.52262 24.43418 36049 ft 408 kts 290°
2026-05-06 12:19 37.54012 24.36647 36051 ft 408 kts 290°
2026-05-06 12:19 37.55777 24.29824 36043 ft 409 kts 290°
2026-05-06 12:20 37.57665 24.23088 36047 ft 410 kts 291°
2026-05-06 12:20 37.59580 24.16348 36043 ft 410 kts 291°
2026-05-06 12:21 37.60530 24.12975 36234 ft 409 kts 291°
2026-05-06 12:21 37.61473 24.09609 36151 ft 408 kts 291°
2026-05-06 12:21 37.62413 24.06247 35934 ft 408 kts 291°
2026-05-06 12:21 37.63353 24.02875 35998 ft 409 kts 291°
2026-05-06 12:22 37.65234 23.96108 36037 ft 410 kts 291°
2026-05-06 12:22 37.67110 23.89333 36276 ft 410 kts 290°
2026-05-06 12:23 37.68044 23.85953 36117 ft 409 kts 290°
2026-05-06 12:23 37.68975 23.82577 36068 ft 409 kts 290°
2026-05-06 12:23 37.70835 23.75818 36039 ft 408 kts 290°
2026-05-06 12:24 37.72687 23.69062 36035 ft 408 kts 290°
2026-05-06 12:24 37.74531 23.62305 36036 ft 409 kts 290°
2026-05-06 12:25 37.76374 23.55535 36036 ft 409 kts 290°
2026-05-06 12:25 37.78252 23.48777 36037 ft 408 kts 292°
2026-05-06 12:26 37.80555 23.42244 36038 ft 408 kts 297°
2026-05-06 12:26 37.83345 23.36026 36040 ft 408 kts 302°
2026-05-06 12:27 37.86293 23.29924 36045 ft 408 kts 301°
2026-05-06 12:27 37.89244 23.23815 36047 ft 408 kts 301°
2026-05-06 12:28 37.92191 23.17697 36058 ft 408 kts 301°
2026-05-06 12:28 37.95133 23.11579 36068 ft 408 kts 301°
2026-05-06 12:29 37.98072 23.05451 36078 ft 407 kts 301°
2026-05-06 12:29 38.01013 22.99311 36084 ft 408 kts 301°
2026-05-06 12:30 38.03950 22.93166 36081 ft 409 kts 301°
2026-05-06 12:30 38.06887 22.87009 36071 ft 409 kts 301°
2026-05-06 12:31 38.09821 22.80849 36049 ft 409 kts 301°
2026-05-06 12:31 38.12750 22.74686 36038 ft 409 kts 301°
2026-05-06 12:32 38.15677 22.68513 36030 ft 409 kts 301°
2026-05-06 12:32 38.18603 22.62336 36026 ft 409 kts 300°
2026-05-06 12:33 38.21528 22.56145 36030 ft 410 kts 300°
2026-05-06 12:33 38.24454 22.49937 36023 ft 410 kts 300°
2026-05-06 12:34 38.27372 22.43736 36030 ft 410 kts 301°
2026-05-06 12:34 38.30291 22.37525 36046 ft 410 kts 300°
2026-05-06 12:35 38.33210 22.31302 36067 ft 410 kts 300°
2026-05-06 12:35 38.36129 22.25062 36086 ft 411 kts 300°
2026-05-06 12:36 38.39043 22.18821 36099 ft 411 kts 300°
2026-05-06 12:36 38.41953 22.12577 36096 ft 411 kts 300°
2026-05-06 12:37 38.44863 22.06323 36101 ft 411 kts 300°
2026-05-06 12:37 38.47766 22.00068 36082 ft 411 kts 300°
2026-05-06 12:38 38.50676 21.93787 36080 ft 412 kts 299°
2026-05-06 12:38 38.53577 21.87510 36083 ft 412 kts 300°
2026-05-06 12:39 38.56474 21.81227 36093 ft 412 kts 299°
2026-05-06 12:39 38.59368 21.74937 36103 ft 412 kts 299°
2026-05-06 12:40 38.62258 21.68638 36103 ft 412 kts 299°
2026-05-06 12:40 38.65143 21.62331 36101 ft 413 kts 299°
2026-05-06 12:41 38.68007 21.56053 36098 ft 413 kts 299°
2026-05-06 12:41 38.70905 21.49737 36084 ft 413 kts 301°
2026-05-06 12:42 38.74077 21.43618 36084 ft 414 kts 303°
2026-05-06 12:42 38.77296 21.37534 36084 ft 414 kts 303°
2026-05-06 12:43 38.80526 21.31398 36082 ft 414 kts 302°
2026-05-06 12:43 38.83730 21.25294 36081 ft 414 kts 302°
2026-05-06 12:44 38.86926 21.19187 36082 ft 414 kts 302°
2026-05-06 12:44 38.90116 21.13073 36083 ft 414 kts 302°
2026-05-06 12:45 38.93298 21.06954 36079 ft 413 kts 302°
2026-05-06 12:46 38.98055 20.97792 36072 ft 415 kts 302°
2026-05-06 12:46 39.01289 20.91602 36308 ft 418 kts 302°
2026-05-06 12:46 39.02903 20.88508 36550 ft 417 kts 302°
2026-05-06 12:47 39.04509 20.85418 36786 ft 416 kts 302°
2026-05-06 12:47 39.06111 20.82329 36999 ft 416 kts 302°
2026-05-06 12:47 39.07707 20.79243 37192 ft 415 kts 302°
2026-05-06 12:47 39.09301 20.76156 37353 ft 416 kts 302°
2026-05-06 12:48 39.10902 20.73050 37504 ft 416 kts 302°
2026-05-06 12:48 39.12498 20.69953 37663 ft 416 kts 302°
2026-05-06 12:48 39.14091 20.66853 37841 ft 415 kts 302°
2026-05-06 12:48 39.15681 20.63756 38009 ft 415 kts 302°
2026-05-06 12:49 39.17271 20.60655 38057 ft 416 kts 302°
2026-05-06 12:49 39.20442 20.54458 38059 ft 415 kts 302°
2026-05-06 12:50 39.23584 20.48298 38057 ft 416 kts 302°
2026-05-06 12:50 39.26759 20.42085 38058 ft 416 kts 302°
2026-05-06 12:51 39.29945 20.35877 38059 ft 416 kts 302°
2026-05-06 12:51 39.33119 20.29654 38058 ft 416 kts 301°
2026-05-06 12:52 39.36285 20.23417 38059 ft 417 kts 301°
2026-05-06 12:52 39.39443 20.17166 38060 ft 417 kts 301°
2026-05-06 12:53 39.42605 20.10906 38063 ft 417 kts 301°
2026-05-06 12:53 39.45915 20.04767 38067 ft 418 kts 304°
2026-05-06 12:54 39.49410 19.98771 38068 ft 418 kts 305°
2026-05-06 12:54 39.52891 19.92780 38071 ft 417 kts 305°
2026-05-06 12:55 39.56363 19.86780 37835 ft 417 kts 304°
2026-05-06 12:55 39.58096 19.83779 38003 ft 418 kts 304°
2026-05-06 12:55 39.59833 19.80764 38263 ft 419 kts 304°
2026-05-06 12:55 39.61571 19.77746 38131 ft 419 kts 304°
2026-05-06 12:56 39.63306 19.74730 38093 ft 418 kts 304°
2026-05-06 12:56 39.66773 19.68692 38074 ft 419 kts 304°
2026-05-06 12:57 39.70239 19.62645 38067 ft 418 kts 304°
2026-05-06 12:57 39.73699 19.56596 38063 ft 418 kts 304°
2026-05-06 12:58 39.77153 19.50546 38061 ft 418 kts 304°
2026-05-06 12:58 39.80604 19.44488 38057 ft 418 kts 304°
2026-05-06 12:59 39.84057 19.38413 38052 ft 420 kts 304°
2026-05-06 12:59 39.87523 19.32304 38052 ft 420 kts 304°
2026-05-06 13:00 39.90973 19.26200 38045 ft 420 kts 303°
2026-05-06 13:00 39.94421 19.20082 38045 ft 420 kts 303°
2026-05-06 13:01 39.97842 19.13995 38041 ft 421 kts 303°
2026-05-06 13:01 40.01302 19.07842 38038 ft 420 kts 303°
2026-05-06 13:02 40.04565 19.01560 38037 ft 418 kts 298°
2026-05-06 13:02 40.07288 18.94896 38033 ft 416 kts 292°
2026-05-06 13:03 40.09540 18.87973 38036 ft 415 kts 290°
2026-05-06 13:03 40.11731 18.80993 38034 ft 416 kts 290°
2026-05-06 13:04 40.13905 18.74047 38038 ft 417 kts 290°
2026-05-06 13:04 40.16092 18.67049 38043 ft 417 kts 290°
2026-05-06 13:05 40.18269 18.60052 38038 ft 417 kts 290°
2026-05-06 13:05 40.20441 18.53052 38033 ft 416 kts 290°
2026-05-06 13:06 40.22606 18.46065 37759 ft 416 kts 290°
2026-05-06 13:06 40.23687 18.42572 37937 ft 415 kts 290°
2026-05-06 13:06 40.24769 18.39068 38000 ft 417 kts 290°
2026-05-06 13:07 40.26939 18.32033 38249 ft 417 kts 289°
2026-05-06 13:07 40.28019 18.28525 38098 ft 416 kts 289°
2026-05-06 13:07 40.29096 18.25022 38055 ft 416 kts 289°
2026-05-06 13:08 40.31242 18.18027 38035 ft 415 kts 290°
2026-05-06 13:08 40.33384 18.11031 37764 ft 415 kts 289°
2026-05-06 13:08 40.34437 18.07584 37949 ft 415 kts 289°
2026-05-06 13:09 40.35508 18.04073 38003 ft 416 kts 289°
2026-05-06 13:09 40.37649 17.97040 38022 ft 417 kts 289°
2026-05-06 13:10 40.39787 17.89998 38019 ft 417 kts 289°
2026-05-06 13:10 40.41924 17.82943 38014 ft 417 kts 289°
2026-05-06 13:11 40.44051 17.75897 38007 ft 416 kts 289°
2026-05-06 13:11 40.46173 17.68850 38008 ft 416 kts 289°
2026-05-06 13:12 40.48289 17.61807 38006 ft 416 kts 289°
2026-05-06 13:12 40.50401 17.54753 38004 ft 416 kts 289°
2026-05-06 13:13 40.52511 17.47683 38009 ft 416 kts 289°
2026-05-06 13:13 40.54609 17.40632 37997 ft 415 kts 289°
2026-05-06 13:14 40.56701 17.33574 38004 ft 415 kts 289°
2026-05-06 13:14 40.58779 17.26531 37992 ft 414 kts 289°
2026-05-06 13:15 40.60849 17.19538 38001 ft 414 kts 289°
2026-05-06 13:15 40.62779 17.12440 37994 ft 413 kts 287°
2026-05-06 13:16 40.64623 17.05293 37996 ft 414 kts 286°
2026-05-06 13:16 40.66457 16.98131 37993 ft 414 kts 286°
2026-05-06 13:17 40.68280 16.90975 37990 ft 414 kts 286°
2026-05-06 13:17 40.70095 16.83831 37990 ft 412 kts 286°
2026-05-06 13:18 40.71897 16.76700 37993 ft 412 kts 286°
2026-05-06 13:18 40.73693 16.69570 37994 ft 411 kts 286°
2026-05-06 13:19 40.75486 16.62441 37995 ft 410 kts 286°
2026-05-06 13:19 40.77271 16.55332 37993 ft 410 kts 286°
2026-05-06 13:20 40.79051 16.48216 37987 ft 409 kts 286°
2026-05-06 13:20 40.80822 16.41112 37979 ft 409 kts 285°
2026-05-06 13:21 40.82589 16.34002 37978 ft 409 kts 285°
2026-05-06 13:21 40.84348 16.26900 37978 ft 408 kts 285°
2026-05-06 13:22 40.86100 16.19803 37976 ft 408 kts 285°
2026-05-06 13:22 40.87846 16.12706 37976 ft 408 kts 285°
2026-05-06 13:23 40.89587 16.05609 37976 ft 407 kts 285°
2026-05-06 13:23 40.91329 15.98494 37971 ft 407 kts 285°
2026-05-06 13:24 40.93059 15.91396 37977 ft 407 kts 284°
2026-05-06 13:24 40.94779 15.84317 37973 ft 406 kts 285°
2026-05-06 13:25 40.96493 15.77242 37975 ft 405 kts 284°
2026-05-06 13:25 40.98203 15.70163 37974 ft 406 kts 284°
2026-05-06 13:26 40.99908 15.63072 37976 ft 406 kts 284°
2026-05-06 13:26 41.01615 15.55958 37976 ft 407 kts 284°
2026-05-06 13:27 41.03314 15.48854 37975 ft 406 kts 284°
2026-05-06 13:27 41.05008 15.41741 37978 ft 407 kts 284°
2026-05-06 13:28 41.06695 15.34611 37983 ft 407 kts 284°
2026-05-06 13:28 41.08375 15.27492 37987 ft 406 kts 283°
2026-05-06 13:29 41.10057 15.20367 37979 ft 407 kts 283°
2026-05-06 13:29 41.11490 15.13157 37976 ft 404 kts 279°
2026-05-06 13:30 41.12687 15.05894 37973 ft 405 kts 278°
2026-05-06 13:30 41.13869 14.98613 37972 ft 404 kts 278°
2026-05-06 13:31 41.15042 14.91354 37968 ft 404 kts 278°
2026-05-06 13:31 41.16217 14.84103 37966 ft 403 kts 279°
2026-05-06 13:32 41.17392 14.76841 37968 ft 404 kts 278°
2026-05-06 13:32 41.18549 14.69562 37963 ft 405 kts 278°
2026-05-06 13:33 41.19688 14.62350 37350 ft 398 kts 278°
2026-05-06 13:33 41.20251 14.58766 36401 ft 401 kts 278°
2026-05-06 13:33 41.20815 14.55146 35551 ft 405 kts 278°
2026-05-06 13:33 41.21386 14.51494 34757 ft 407 kts 278°
2026-05-06 13:34 41.21955 14.47841 34417 ft 406 kts 279°
2026-05-06 13:34 41.22526 14.44171 34134 ft 409 kts 278°
2026-05-06 13:34 41.23095 14.40486 33853 ft 409 kts 278°
2026-05-06 13:34 41.23667 14.36791 33568 ft 411 kts 278°
2026-05-06 13:35 41.24240 14.33081 33286 ft 411 kts 278°
2026-05-06 13:35 41.24802 14.29418 33029 ft 408 kts 278°
2026-05-06 13:35 41.25367 14.25740 32999 ft 407 kts 278°
2026-05-06 13:36 41.26486 14.18377 32994 ft 409 kts 277°
2026-05-06 13:36 41.27602 14.11017 32970 ft 407 kts 277°
2026-05-06 13:36 41.28159 14.07347 32302 ft 408 kts 277°
2026-05-06 13:37 41.28817 14.03700 31645 ft 406 kts 282°
2026-05-06 13:37 41.29675 14.00163 31195 ft 402 kts 285°
2026-05-06 13:37 41.30718 13.96724 30734 ft 401 kts 289°
2026-05-06 13:37 41.31940 13.93410 30269 ft 400 kts 293°
2026-05-06 13:38 41.33337 13.90231 29817 ft 400 kts 297°
2026-05-06 13:38 41.34864 13.87168 29363 ft 398 kts 298°
2026-05-06 13:38 41.36402 13.84144 28891 ft 395 kts 298°
2026-05-06 13:38 41.37933 13.81147 28421 ft 391 kts 299°
2026-05-06 13:39 41.39454 13.78175 27943 ft 388 kts 299°
2026-05-06 13:39 41.40967 13.75230 27475 ft 385 kts 299°
2026-05-06 13:39 41.42466 13.72310 27007 ft 381 kts 298°
2026-05-06 13:39 41.43772 13.69298 26540 ft 373 kts 290°
2026-05-06 13:40 41.44719 13.66140 26083 ft 365 kts 283°
2026-05-06 13:40 41.45320 13.62902 25607 ft 359 kts 277°
2026-05-06 13:40 41.45751 13.59662 25161 ft 355 kts 276°
2026-05-06 13:40 41.46158 13.56451 24700 ft 352 kts 276°
2026-05-06 13:41 41.46556 13.53265 24246 ft 348 kts 276°
2026-05-06 13:41 41.46953 13.50106 23797 ft 345 kts 276°
2026-05-06 13:41 41.47345 13.46973 23349 ft 343 kts 276°
2026-05-06 13:41 41.47734 13.43862 22906 ft 341 kts 276°
2026-05-06 13:42 41.48122 13.40767 22468 ft 339 kts 276°
2026-05-06 13:42 41.48507 13.37687 22021 ft 338 kts 276°
2026-05-06 13:42 41.48890 13.34617 21570 ft 336 kts 276°
2026-05-06 13:42 41.49271 13.31558 21121 ft 335 kts 276°
2026-05-06 13:43 41.49651 13.28509 20686 ft 334 kts 276°
2026-05-06 13:43 41.50027 13.25464 20238 ft 334 kts 276°
2026-05-06 13:43 41.50403 13.22425 19785 ft 333 kts 276°
2026-05-06 13:43 41.50777 13.19395 19333 ft 332 kts 276°
2026-05-06 13:44 41.51149 13.16372 18884 ft 331 kts 276°
2026-05-06 13:44 41.51519 13.13355 18445 ft 331 kts 276°
2026-05-06 13:44 41.51888 13.10342 17994 ft 330 kts 276°
2026-05-06 13:44 41.52253 13.07335 17548 ft 329 kts 276°
2026-05-06 13:45 41.52617 13.04336 17110 ft 329 kts 276°
2026-05-06 13:45 41.53344 12.98347 16299 ft 324 kts 277°
2026-05-06 13:45 41.53699 12.95439 16157 ft 313 kts 277°
2026-05-06 13:46 41.54241 12.92684 16002 ft 306 kts 291°
2026-05-06 13:46 41.55382 12.90308 15945 ft 309 kts 308°
2026-05-06 13:46 41.56928 12.88282 15972 ft 313 kts 313°
2026-05-06 13:46 41.58529 12.86307 15987 ft 314 kts 314°
2026-05-06 13:47 41.60135 12.84328 16000 ft 314 kts 314°
2026-05-06 13:47 41.61737 12.82342 15994 ft 315 kts 314°
2026-05-06 13:47 41.63337 12.80349 15999 ft 315 kts 314°
2026-05-06 13:47 41.64935 12.78354 16003 ft 315 kts 313°
2026-05-06 13:48 41.66533 12.76356 16011 ft 315 kts 313°
2026-05-06 13:48 41.68132 12.74358 16010 ft 315 kts 313°
2026-05-06 13:48 41.69731 12.72359 16009 ft 315 kts 313°
2026-05-06 13:48 41.71328 12.70360 16008 ft 315 kts 313°
2026-05-06 13:49 41.72920 12.68360 16012 ft 315 kts 313°
2026-05-06 13:49 41.74511 12.66358 16009 ft 314 kts 313°
2026-05-06 13:49 41.76101 12.64355 16006 ft 314 kts 313°
2026-05-06 13:49 41.77699 12.62342 15999 ft 315 kts 313°
2026-05-06 13:50 41.79297 12.60329 15972 ft 315 kts 313°
2026-05-06 13:50 41.80889 12.58315 15580 ft 316 kts 312°
2026-05-06 13:50 41.82440 12.56247 15163 ft 315 kts 311°
2026-05-06 13:50 41.83971 12.54165 14766 ft 313 kts 311°
2026-05-06 13:51 41.85492 12.52097 14379 ft 311 kts 311°
2026-05-06 13:51 41.87007 12.50045 14017 ft 308 kts 312°
2026-05-06 13:51 41.88490 12.48044 13911 ft 297 kts 312°
2026-05-06 13:51 41.90078 12.46345 13796 ft 290 kts 327°
2026-05-06 13:52 41.91930 12.45269 13470 ft 292 kts 338°
2026-05-06 13:52 41.93869 12.44459 13105 ft 292 kts 340°
2026-05-06 13:52 41.95811 12.43684 12757 ft 291 kts 340°
2026-05-06 13:52 41.97742 12.42908 12414 ft 289 kts 340°
2026-05-06 13:53 41.99652 12.42129 12134 ft 285 kts 340°
2026-05-06 13:53 42.01530 12.41355 11822 ft 279 kts 339°
2026-05-06 13:53 42.03364 12.40594 11363 ft 275 kts 339°
2026-05-06 13:53 42.05181 12.39834 10849 ft 273 kts 339°
2026-05-06 13:54 42.06984 12.39079 10301 ft 272 kts 339°
2026-05-06 13:54 42.08770 12.38335 9840 ft 266 kts 339°
2026-05-06 13:54 42.10521 12.37605 9489 ft 260 kts 339°
2026-05-06 13:54 42.12226 12.36891 9016 ft 256 kts 339°
2026-05-06 13:55 42.13929 12.36172 8587 ft 257 kts 339°
2026-05-06 13:55 42.15618 12.35458 8188 ft 253 kts 337°
2026-05-06 13:55 42.17084 12.34275 7585 ft 245 kts 305°
2026-05-06 13:55 42.17783 12.32277 7002 ft 236 kts 274°
2026-05-06 13:56 42.17652 12.30143 6421 ft 229 kts 250°
2026-05-06 13:56 42.17153 12.28127 5862 ft 228 kts 249°
2026-05-06 13:56 42.16653 12.26100 5383 ft 230 kts 249°
2026-05-06 13:56 42.16163 12.24061 5065 ft 229 kts 249°
2026-05-06 13:57 42.15683 12.22033 4791 ft 226 kts 249°
2026-05-06 13:57 42.15163 12.20068 4556 ft 220 kts 238°
2026-05-06 13:57 42.14081 12.18761 4334 ft 209 kts 198°
2026-05-06 13:57 42.12672 12.18385 4104 ft 206 kts 189°
2026-05-06 13:58 42.11266 12.18021 3809 ft 206 kts 191°
2026-05-06 13:58 42.09869 12.17617 3536 ft 205 kts 192°
2026-05-06 13:58 42.08479 12.17251 3275 ft 203 kts 186°
2026-05-06 13:58 42.07082 12.17144 3040 ft 199 kts 177°
2026-05-06 13:59 42.05730 12.17369 2990 ft 195 kts 168°
2026-05-06 13:59 42.04416 12.17819 2987 ft 195 kts 164°
2026-05-06 13:59 42.03120 12.18354 2980 ft 195 kts 163°
2026-05-06 13:59 42.01822 12.18910 2973 ft 196 kts 163°
2026-05-06 14:00 42.00520 12.19467 2974 ft 197 kts 163°
2026-05-06 14:00 41.99181 12.20074 2501 ft 210 kts 161°
2026-05-06 14:00 41.97822 12.20704 2313 ft 204 kts 161°
2026-05-06 14:00 41.96490 12.21295 2129 ft 199 kts 164°
2026-05-06 14:01 41.95170 12.21770 1930 ft 194 kts 165°
2026-05-06 14:01 41.93877 12.22247 1730 ft 191 kts 163°
2026-05-06 14:01 41.92641 12.22751 1592 ft 183 kts 163°
2026-05-06 14:01 41.91476 12.23247 1446 ft 170 kts 163°
2026-05-06 14:02 41.90373 12.23718 1211 ft 157 kts 163°
2026-05-06 14:02 41.89382 12.24138 999 ft 143 kts 164°
2026-05-06 14:02 41.88486 12.24526 787 ft 131 kts 164°
2026-05-06 14:02 41.87637 12.24882 613 ft 126 kts 166°
2026-05-06 14:03 41.86795 12.25220 478 ft 126 kts 163°
2026-05-06 14:03 41.85963 12.25577 317 ft 126 kts 164°
2026-05-06 14:03 41.85125 12.25929 174 ft 125 kts 163°
2026-05-06 14:03 41.84286 12.26279 27 ft 125 kts 163°
2026-05-06 14:04 41.83596 12.26567 11 ft 79 kts 163°
2026-05-06 14:04 41.83204 12.26732 9 ft 50 kts 162°
2026-05-06 14:04 41.82910 12.26849 8 ft 36 kts 169°
2026-05-06 14:04 41.82686 12.26862 10 ft 27 kts 190°
2026-05-06 14:05 41.82505 12.26811 9 ft 26 kts 192°
2026-05-06 14:05 41.82324 12.26783 7 ft 26 kts 172°
2026-05-06 14:05 41.82151 12.26849 8 ft 25 kts 162°
2026-05-06 14:05 41.81989 12.26918 9 ft 23 kts 162°
2026-05-06 14:06 41.81834 12.26942 11 ft 22 kts 191°
2026-05-06 14:06 41.81680 12.26910 9 ft 22 kts 169°
2026-05-06 14:06 41.81528 12.26973 8 ft 22 kts 163°
2026-05-06 14:06 41.81377 12.27036 8 ft 22 kts 162°
2026-05-06 14:07 41.81233 12.27096 12 ft 20 kts 162°
2026-05-06 14:07 41.81104 12.27150 16 ft 18 kts 163°
2026-05-06 14:07 41.80983 12.27200 17 ft 17 kts 162°
2026-05-06 14:07 41.80867 12.27249 16 ft 17 kts 162°
2026-05-06 14:08 41.80751 12.27289 14 ft 17 kts 179°
2026-05-06 14:08 41.80652 12.27211 11 ft 17 kts 242°
2026-05-06 14:08 41.80603 12.27052 9 ft 19 kts 249°
2026-05-06 14:08 41.80556 12.26874 9 ft 20 kts 251°
2026-05-06 14:09 41.80507 12.26694 11 ft 20 kts 249°
2026-05-06 14:09 41.80459 12.26520 14 ft 19 kts 250°
2026-05-06 14:09 41.80413 12.26352 17 ft 18 kts 249°
2026-05-06 14:09 41.80369 12.26193 19 ft 18 kts 249°
2026-05-06 14:10 41.80325 12.26032 18 ft 19 kts 250°
2026-05-06 14:10 41.80277 12.25857 17 ft 20 kts 249°
2026-05-06 14:10 41.80224 12.25670 15 ft 21 kts 249°
2026-05-06 14:10 41.80172 12.25480 14 ft 21 kts 250°
2026-05-06 14:11 41.80121 12.25293 10 ft 21 kts 251°
2026-05-06 14:11 41.80020 12.25158 7 ft 21 kts 204°
2026-05-06 14:11 41.79928 12.25117 10 ft 3 kts 126°
2026-05-06 14:11 41.79916 12.25143 11 ft 2 kts 120°
2026-05-06 14:12 41.79910 12.25160 12 ft 1 kts 118°
2026-05-06 14:12 41.79903 12.25178 12 ft 2 kts 116°
2026-05-06 14:12 41.79897 12.25197 13 ft 1 kts 114°
2026-05-06 14:12 41.79895 12.25202 13 ft 0 kts 115°
2026-05-06 14:13 41.79894 12.25204 13 ft 0 kts 115°